LEVCLEAL

Guest
Details From LEVC - Valencia
To LEAL - Alicante
Flight Number -
Tags generated
Created
Modified
Stats Distance 73 nm / 134 km
Max Altitude 0 ft / 0 m
Waypoints 3
Social Downloads 0
Likes 0
Share VATSIM

Download

Looking for another format? Having issues loading an existing format? Contact us
Advertisement - Login to hide

Notes

Basic altitude profile: - Ascent Rate: 250ft/min - Ascent Speed: 200kts - Cruise Altitude: 8000ft - Cruise Speed: 270kts - Descent Rate: 250ft/min - Descent Speed: 190kts Options: - Use NATs: yes - Use PACOTS: yes - Use low airways: yes - Use high airways: yes

Route

LEVC VLC LEAL

ID Type Via Altitude Latitude Longitude Leg Dist Tot Dist Heading (true) Name
O LEVC APT - 0 ft / 0 m 39.48824˚ -0.48389˚ - 0 nm - Valencia
VLC VOR - 0 ft / 0 m 39.48565˚ -0.48304˚ 0 nm 0 nm 166° / 166° VALENCIA VOR-DME
O LEAL APT - 0 ft / 0 m 38.28217˚ -0.55816˚ 72 nm 72 nm 183° / 183° Alicante

Altitude Profile

Advertisement - Login to hide

LEVC

Details ICAO LEVC (VLC)
Name Valencia
Region Spain
Timezone Europe/Madrid (UTC+1.0)
Stats Elevation 225 ft / 69 m (AMSL)
Location 39.488236° -0.483892°
Runways 2
Magnetic Variation 0.192° E

METAR

LEVC 161130Z 35009KT 320V020 CAVOK 15/M02 Q1018 NOSIG

Decode

TAF

TAF LEVC 160500Z 1606/1706 27006KT 9999 FEW035 TX16/1612Z TN03/1606Z

Decode

Departure Runways

ID Width Length Bearing (true) Bearing (mag) Surface Threshold Offset Overrun Length
12 148 ft / 45 m 10,555 ft / 3,217 m 116.25° 116.06° Asphalt 0 ft / 0 m 646 ft / 197 m
22 154 ft / 47 m 3,828 ft / 1,167 m 217.99° 217.80° Asphalt 0 ft / 0 m 0 ft / 0 m
30 148 ft / 45 m 10,555 ft / 3,217 m 296.27° 296.08° Asphalt 1,001 ft / 305 m 932 ft / 284 m
4 154 ft / 47 m 3,828 ft / 1,167 m 37.98° 37.79° Asphalt 0 ft / 0 m 0 ft / 0 m

LEAL

Details ICAO LEAL (ALC)
Name Alicante
Region Spain
Timezone Europe/Madrid (UTC+1.0)
Stats Elevation 141 ft / 43 m (AMSL)
Location 38.282169° -0.558157°
Runways 1
Magnetic Variation 0.184° E

METAR

LEAL 161130Z 29007KT 260V320 CAVOK 15/M02 Q1018 NOSIG

Decode

TAF

TAF TAF LEAL 160500Z 1606/1706 32005KT 9999 FEW030 TX17/1613Z TN07/1606Z TEMPO 1606/1610 31012KT

Decode

Destination Runways

ID Width Length Bearing (true) Bearing (mag) Surface Threshold Offset Overrun Length
10 148 ft / 45 m 9,799 ft / 2,987 m 100.07° 99.89° Asphalt 0 ft / 0 m 164 ft / 50 m
28 148 ft / 45 m 9,799 ft / 2,987 m 280.09° 279.91° Asphalt 0 ft / 0 m 197 ft / 60 m

Approach Navaids

Runway Type Ident Frequency Range Bearing (true) Bearing (mag) Slope Elevation
10 Localiser IAT 110.30 MHz 18 nm / 33 km 100.09° 99.91° - 29 ft / 9 m (AMSL)
10 Glidescope IAT 110.30 MHz 10 nm / 19 km 100.09° 99.91° 3.00° 129 ft / 39 m (AMSL)
10 DME IAT 110.30 MHz 18 nm / 33 km - - - 129 ft / 39 m (AMSL)

Popular Alternatives